SCP
0 0 0 0 0 0 0 0 0 0 0 0 0 0 0 0 0 0 0 0 0 0 0 0 0 0 0 0 0 0 0 0 0 0 0 0 0 0 0 0 0 0 0
0 0 0 0 0 0 0 0 0 0 0 0 0 0 0 0 0 0 0 0 0 0 0 0 0 0 0 0 0 0 0 0 0 0 0 0 0 0 0 0 0 0 0
0 0 0 0 0 0 0 0 0 0 0 0 0 0 0 0 0 0 0 0 0 0 0 0 0 0 0 0 0 0 0 0 0 0 0 0 0 0 0 0 0 0 0
0 0 0 0 0 0 0 0 0 0 0 0 0 0 0 0 0 0 0 0 0 0 0 0 0 0 0 0 0 0 0 0 0 0 0 0 0 0 0 0 0 0 0
0 0 0 0 0 0 0 0 0 0 0 0 0 0 0 0 0 0 0 0 0 0 0 0 0 0 0 0 0 0 0 0 0 0 0 0 0 0 0 0 0 0 0
0 0 0 0 0 0 0 0 0 0 0 0 0 0 0 0 0 0 0 0 0 0 0 0 0 0 0 0 0 0 0 0 0 0 0 0 0 0 0 0 0 0 0
0 0 0 0 0 0 0 0 0 0 0 0 0 0 0 0 0 0 0 0 0 0 0 0 0 0 0 0 0 0 0 0 0 0 0 0 0 0 0 0 0 0 0
0 0 0 0 0 0 0 0 0 0 0 0 0 0 0 0 0 0 0 0 0 0 0 0 0 0 0 0 0 0 0 0 0 0 0 0 0 0 0 0 0 0 0
0 0 0 0 0 0 0 0 0 0 0 0 0 0 0 0 0 0 0 0 0 0 0 0 0 0 0 0 0 0 0 0 0 0 0 0 0 0 0 0 0 0 0
0 0 0 0 0 0 0 0 0 0 0 0 0 0 0 0 0 0 0 0 0 0 0 0 0 0 0 0 0 0 0 0 0 0 0 0 0 0 0 0 0 0 0
0 0 0 0 0 0 0 0 0 0 0 0 0 0 0 0 0 0 0 0 0 0 0 0 0 0 0 0 0 0 0 0 0 0 0 0 0 0 0 0 0 0 0
0 0 0 0 0 0 0 0 0 0 0 0 0 0 0 0 0 0 0 0 0 0 0 0 0 0 0 0 0 0 0 0 0 0 0 0 0 0 0 0 0 0 0
0 0 0 0 0 0 0 0 0 0 0 0 0 0 0 0 0 0 0 0 0 0 0 0 0 0 0 0 0 0 0 0 0 0 0 0 0 0 0 0 0 0 0
0 0 0 0 0 0 0 0 0 0 0 0 0 0 0 0 0 0 0 0 0 0 0 0 0 0 0 0 0 0 0 0 0 0 0 0 0 0 0 0 0 0 0
0 0 0 0 0 0 0 0 0 0 0 0 0 0 0 0 0 0 0 0 0 0 0 0 0 0 0 0 0 0 0 0 0 0 0 0 0 0 0 0 0 0 0
0 0 0 0 0 0 0 0 0 0 0 0 0 0 0 0 0 0 0 0 0 0 0 0 0 0 0 0 0 0 0 0 0 0 0 0 0 0 0 0 0 0 0
0 0 0 0 0 0 0 0 0 0 0 0 0 0 0 0 0 0 0 0 0 0 0 0 0 0 0 0 0 0 0 0 0 0 0 0 0 0 0 0 0 0 0
0 0 0 0 0 0 0 0 0 0 0 0 0 0 0 0 0 0 0 0 0 0 0 0 0 0 0 0 0 0 0 0 0 0 0 0 0 0 0 0 0 0 0
0 0 0 0 0 0 0 0 0 0 0 0 0 0 0 0 0 0 0 0 0 0 0 0 0 0 0 0 0 0 0 0 0 0 0 0 0 0 0 0 0 0 0
0 0 0 0 0 0 0 0 0 0 0 0 0 0 0 0 0 0 0 0 0 0 0 0 0 0 0 0 0 0 0 0 0 0 0 0 0 0 0 0 0 0 0
0 0 0 0 0 0 0 0 0 0 0 0 0 0 0 0 0 0 0 0 0 0 0 0 0 0 0 0 0 0 0 0 0 0 0 0 0 0 0 0 0 0 0
0 0 0 0 0 0 0 0 0 0 0 0 0 0 0 0 0 0 0 0 0 0 0 0 0 0 0 0 0 0 0 0 0 0 0 0 0 0 0 0 0 0 0
0 0 0 0 0 0 0 0 0 0 0 0 0 0 0 0 0 0 0 0 0 0 0 0 0 0 0 0 0 0 0 0 0 0 0 0 0 0 0 0 0 0 0
0 0 0 0 0 0 0 0 0 0 0 0 0 0 0 0 0 0 0 0 0 0 0 0 0 0 0 0 0 0 0 0 0 0 0 0 0 0 0 0 0 0 0
0 0 0 0 0 0 0 0 0 0 0 0 0 0 0 0 0 0 0 0 0 0 0 0 0 0 0 0 0 0 0 0 0 0 0 0 0 0 0 0 0 0 0
0 0 0 0 0 0 0 0 0 0 0 0 0 0 0 0 0 0 0 0 0 0 0 0 0 0 0 0 0 0 0 0 0 0 0 0 0 0 0 0 0 0 0
Wind_Speed_500mb
20 19 19 16 14 13 11 10 9 7 6 4 10 12 13 16 22 17 24 15 6 5 3 18 21 17 17 17 18 19 20 21 23 25 28 32 32 33 35 36 39 43 44
22 18 19 19 17 15 14 12 10 9 8 7 10 15 16 19 20 23 25 15 11 12 17 23 21 16 12 13 15 15 17 19 21 24 27 27 27 31 36 35 41 43 43
24 24 25 24 19 18 17 15 13 12 11 10 14 16 20 23 24 24 27 20 19 18 20 22 21 17 10 10 10 12 12 15 17 20 25 25 25 28 31 33 34 39 42
30 29 28 25 23 22 20 21 20 18 15 15 14 20 24 25 24 23 28 25 24 23 23 24 23 17 11 5 7 9 9 10 14 16 20 23 24 23 27 31 34 38 40
36 33 30 27 27 26 24 24 24 22 17 16 18 24 25 25 23 26 27 28 26 25 23 24 22 19 16 11 2 3 6 7 11 14 16 17 18 21 25 28 31 34 38
40 39 36 33 33 32 30 26 27 27 23 23 24 25 25 27 28 29 30 30 27 28 28 27 24 21 19 17 11 5 5 6 6 8 13 13 16 19 21 25 29 33 37
45 44 42 39 39 38 34 30 30 32 30 28 28 28 29 31 34 36 33 36 36 35 33 32 28 24 21 18 17 15 8 4 3 4 9 8 11 14 19 23 28 33 36
50 49 46 44 43 43 40 39 39 39 37 36 34 32 28 33 39 43 53 47 46 43 40 37 33 29 25 23 21 18 14 10 5 2 2 5 9 13 17 23 28 32 37
55 54 52 48 47 47 46 43 41 44 43 45 44 41 19 25 30 40 46 49 51 53 50 44 39 34 30 27 24 21 18 15 12 8 4 2 7 13 18 23 28 33 38
61 59 58 54 53 51 51 48 44 45 46 46 52 53 54 51 39 32 41 48 51 56 56 53 46 39 35 31 28 25 22 20 16 11 8 8 9 13 18 23 28 32 36
67 64 63 60 60 59 56 55 53 55 54 56 57 60 58 57 56 61 60 57 59 61 63 61 54 47 41 35 31 29 26 21 17 15 12 11 13 16 23 26 29 33 38
72 72 68 67 66 66 65 61 60 62 63 65 66 68 66 62 68 68 70 75 74 67 67 65 62 54 46 41 35 32 29 23 21 19 16 16 18 19 25 30 35 38 39
78 75 72 72 73 71 70 69 69 70 70 74 70 69 68 71 64 75 81 78 75 71 71 67 64 59 52 45 38 34 30 26 23 22 21 21 21 25 27 30 37 41 44
76 73 72 70 71 74 74 75 77 78 79 80 78 78 83 82 83 86 86 79 79 70 70 71 59 58 54 47 41 37 35 30 27 25 26 26 26 29 30 31 36 41 45
74 71 70 69 66 67 70 75 80 82 86 87 91 92 96 97 97 92 97 88 85 74 68 65 64 58 50 50 45 41 38 33 29 30 29 31 32 32 32 33 37 42 47
73 71 70 68 64 63 65 69 74 77 82 87 92 101 102 103 99 97 102 89 86 78 64 52 49 52 44 47 47 43 39 35 32 35 30 37 37 35 35 36 37 43 48
75 76 74 71 68 67 65 68 69 75 78 79 84 84 88 96 87 103 107 90 73 66 66 55 57 50 47 44 47 44 42 40 37 37 33 41 41 38 39 39 39 44 48
71 69 67 67 65 62 63 67 70 69 77 80 79 79 83 85 77 96 98 75 69 61 49 48 61 47 45 51 47 48 47 43 37 43 38 44 43 40 42 41 42 46 49
66 65 64 62 61 61 60 63 61 69 74 70 69 72 78 79 67 75 89 74 66 51 39 51 42 53 53 55 55 52 49 41 42 45 46 45 46 44 46 42 43 46 50
63 62 58 58 58 63 56 61 58 57 56 61 70 70 69 71 73 71 75 66 53 43 38 43 41 49 53 56 56 55 49 42 48 48 49 51 52 47 51 45 45 47 50
53 51 47 48 52 55 58 58 63 65 66 65 63 63 58 58 56 60 58 53 47 36 44 45 38 49 59 62 62 53 49 47 50 42 43 66 56 53 54 47 49 49 50
37 40 43 44 51 56 53 56 58 57 56 52 51 52 52 55 54 52 55 55 49 50 44 45 48 59 60 62 57 52 49 49 44 36 56 67 61 58 54 51 51 51 50
30 32 35 39 41 43 45 47 52 54 57 60 62 61 52 51 47 44 42 36 42 49 47 45 56 55 52 54 52 53 52 50 44 41 61 63 62 58 56 50 52 52 49
26 28 32 35 35 35 34 31 30 32 36 37 38 38 40 41 43 42 41 42 43 42 42 44 55 49 51 51 52 51 49 48 49 45 55 63 64 65 55 49 53 53 50
27 28 30 31 30 29 26 26 29 31 34 35 36 34 36 37 37 36 39 41 41 40 41 45 48 49 53 55 58 53 47 50 53 55 50 63 60 65 62 53 51 54 52
21 23 24 24 24 25 26 26 27 31 33 33 32 31 27 28 31 37 37 37 40 39 45 45 49 49 53 55 57 57 51 54 60 57 62 64 63 59 53 50 47 48 42
Wind_Direction_500mb
201 207 212 215 221 227 230 228 235 235 254 329 343 329 312 310 313 305 319 305 286 147 207 330 351 13 37 44 43 44 48 51 53 54 55 53 53 46 45 45 33 34 23
216 223 233 235 239 245 247 247 248 252 251 289 285 296 294 300 308 315 320 306 304 289 314 325 333 347 21 51 47 56 56 52 54 56 59 57 49 44 44 34 27 28 22
225 226 231 237 242 249 252 256 255 254 269 271 267 283 284 291 297 297 315 305 303 302 314 322 324 329 360 61 62 59 55 54 56 57 64 53 49 46 38 34 29 29 21
231 234 238 244 246 253 261 262 257 251 256 274 279 286 286 287 288 287 307 298 298 304 311 321 324 321 331 21 68 59 49 43 52 59 67 64 53 39 37 35 26 24 19
236 241 246 248 251 255 261 268 257 248 249 271 267 283 281 278 272 280 293 293 294 296 302 313 311 305 310 296 307 36 5 42 59 61 61 59 56 46 36 26 24 21 18
242 246 248 248 250 256 259 263 258 245 247 253 277 283 278 273 266 269 283 286 287 293 295 304 300 297 300 294 274 286 317 355 37 62 69 58 45 35 26 24 19 17 13
241 245 250 251 252 256 263 263 261 248 244 252 267 279 277 274 273 274 274 276 276 283 289 293 293 291 291 286 279 274 275 299 357 68 76 57 47 37 25 18 14 11 10
245 248 251 254 256 258 257 252 254 252 241 249 256 268 258 266 274 273 276 277 274 276 279 283 286 284 282 277 271 263 267 274 273 216 81 46 28 18 16 12 9 6 5
246 247 252 254 254 254 254 254 253 250 244 246 257 245 248 249 268 269 277 274 274 273 273 274 276 275 273 271 264 262 264 263 259 266 265 322 10 8 6 7 4 2 360
248 249 249 251 251 252 253 252 249 247 245 246 254 251 249 259 266 276 277 277 274 274 274 269 267 267 266 265 260 253 249 251 252 256 267 299 328 344 354 358 358 357 356
251 251 252 253 252 251 254 253 250 246 248 251 255 260 257 260 267 269 273 274 270 274 270 268 265 262 261 259 255 251 250 253 258 263 269 294 315 334 336 343 350 353 352
255 255 254 254 255 255 256 257 255 252 252 255 257 257 261 264 270 272 272 274 277 276 271 264 262 260 258 256 251 247 247 252 259 263 276 290 305 324 330 335 339 344 347
261 261 260 259 259 259 259 259 257 256 255 255 257 257 260 264 268 272 272 270 268 272 270 261 260 256 255 253 250 248 249 252 259 268 278 289 305 318 323 330 334 337 339
268 270 271 267 267 266 266 264 262 260 258 258 257 258 262 262 259 265 268 263 266 269 265 256 264 255 253 251 247 246 246 249 258 266 277 290 301 308 316 323 328 332 334
270 273 274 274 272 271 270 269 268 267 265 262 261 260 262 264 264 264 268 262 264 261 263 263 261 264 256 249 244 241 241 248 258 268 275 285 293 300 310 317 324 326 329
274 275 277 278 278 277 275 271 270 268 267 270 266 264 266 270 271 270 267 261 257 263 263 275 272 264 258 247 241 242 242 247 256 263 272 281 286 293 306 313 318 321 325
272 273 274 275 276 275 274 273 269 272 273 273 271 277 277 285 278 273 273 258 261 266 260 262 263 268 256 248 241 241 241 243 254 264 267 275 282 290 299 307 312 316 320
271 272 274 275 277 277 278 279 274 275 271 271 275 278 283 285 282 289 286 269 261 258 262 256 266 256 264 249 240 237 240 244 258 264 266 274 280 286 295 303 307 312 316
267 270 271 272 273 274 276 275 278 280 273 276 279 283 283 290 280 284 275 270 265 264 249 250 253 278 256 244 242 240 240 246 258 266 266 272 280 283 289 297 302 309 312
260 263 266 266 267 268 270 274 277 271 279 283 283 278 283 284 280 277 273 269 262 252 237 245 260 258 260 252 245 242 242 250 264 265 269 275 275 280 285 293 299 304 306
257 259 259 258 260 267 268 272 270 282 282 283 283 284 286 287 290 288 279 270 259 246 243 251 248 258 263 255 246 244 240 255 264 268 286 278 275 278 280 289 293 297 300
266 264 265 262 267 269 268 264 268 271 274 280 285 289 293 292 297 289 281 270 260 243 227 237 249 251 261 254 253 244 244 259 254 269 303 279 272 275 275 284 288 291 297
260 264 269 272 274 275 277 273 269 266 270 274 278 278 282 283 278 283 275 264 242 240 254 247 245 251 256 258 255 243 249 259 254 281 289 274 270 270 272 275 280 286 294
268 274 276 277 276 276 278 280 283 286 286 288 285 281 281 278 276 272 267 260 259 259 239 245 255 260 254 247 243 240 256 261 258 277 276 270 274 276 275 272 277 282 291
272 278 282 285 292 290 293 291 288 289 288 282 280 277 274 277 279 272 262 259 259 249 248 261 261 256 254 251 243 237 255 261 269 274 286 278 276 276 275 272 272 280 286
288 291 295 295 284 286 290 288 286 283 287 278 270 280 285 283 275 266 261 261 251 258 271 270 267 265 259 253 247 244 248 257 268 275 295 276 275 270 272 273 268 274 278
Wind_Speed_850mb
20 19 19 16 14 13 11 10 9 7 6 4 10 12 13 16 22 17 24 15 6 5 3 18 21 17 17 17 18 19 20 21 23 25 28 32 32 33 35 36 39 43 44
22 18 19 19 17 15 14 12 10 9 8 7 10 15 16 19 20 23 25 15 11 12 17 23 21 16 12 13 15 15 17 19 21 24 27 27 27 31 36 35 41 43 43
24 24 25 24 19 18 17 15 13 12 11 10 14 16 20 23 24 24 27 20 19 18 20 22 21 17 10 10 10 12 12 15 17 20 25 25 25 28 31 33 34 39 42
30 29 28 25 23 22 20 21 20 18 15 15 14 20 24 25 24 23 28 25 24 23 23 24 23 17 11 5 7 9 9 10 14 16 20 23 24 23 27 31 34 38 40
36 33 30 27 27 26 24 24 24 22 17 16 18 24 25 25 23 26 27 28 26 25 23 24 22 19 16 11 2 3 6 7 11 14 16 17 18 21 25 28 31 34 38
40 39 36 33 33 32 30 26 27 27 23 23 24 25 25 27 28 29 30 30 27 28 28 27 24 21 19 17 11 5 5 6 6 8 13 13 16 19 21 25 29 33 37
45 44 42 39 39 38 34 30 30 32 30 28 28 28 29 31 34 36 33 36 36 35 33 32 28 24 21 18 17 15 8 4 3 4 9 8 11 14 19 23 28 33 36
50 49 46 44 43 43 40 39 39 39 37 36 34 32 28 33 39 43 53 47 46 43 40 37 33 29 25 23 21 18 14 10 5 2 2 5 9 13 17 23 28 32 37
55 54 52 48 47 47 46 43 41 44 43 45 44 41 19 25 30 40 46 49 51 53 50 44 39 34 30 27 24 21 18 15 12 8 4 2 7 13 18 23 28 33 38
61 59 58 54 53 51 51 48 44 45 46 46 52 53 54 51 39 32 41 48 51 56 56 53 46 39 35 31 28 25 22 20 16 11 8 8 9 13 18 23 28 32 36
67 64 63 60 60 59 56 55 53 55 54 56 57 60 58 57 56 61 60 57 59 61 63 61 54 47 41 35 31 29 26 21 17 15 12 11 13 16 23 26 29 33 38
72 72 68 67 66 66 65 61 60 62 63 65 66 68 66 62 68 68 70 75 74 67 67 65 62 54 46 41 35 32 29 23 21 19 16 16 18 19 25 30 35 38 39
78 75 72 72 73 71 70 69 69 70 70 74 70 69 68 71 64 75 81 78 75 71 71 67 64 59 52 45 38 34 30 26 23 22 21 21 21 25 27 30 37 41 44
76 73 72 70 71 74 74 75 77 78 79 80 78 78 83 82 83 86 86 79 79 70 70 71 59 58 54 47 41 37 35 30 27 25 26 26 26 29 30 31 36 41 45
74 71 70 69 66 67 70 75 80 82 86 87 91 92 96 97 97 92 97 88 85 74 68 65 64 58 50 50 45 41 38 33 29 30 29 31 32 32 32 33 37 42 47
73 71 70 68 64 63 65 69 74 77 82 87 92 101 102 103 99 97 102 89 86 78 64 52 49 52 44 47 47 43 39 35 32 35 30 37 37 35 35 36 37 43 48
75 76 74 71 68 67 65 68 69 75 78 79 84 84 88 96 87 103 107 90 73 66 66 55 57 50 47 44 47 44 42 40 37 37 33 41 41 38 39 39 39 44 48
71 69 67 67 65 62 63 67 70 69 77 80 79 79 83 85 77 96 98 75 69 61 49 48 61 47 45 51 47 48 47 43 37 43 38 44 43 40 42 41 42 46 49
66 65 64 62 61 61 60 63 61 69 74 70 69 72 78 79 67 75 89 74 66 51 39 51 42 53 53 55 55 52 49 41 42 45 46 45 46 44 46 42 43 46 50
63 62 58 58 58 63 56 61 58 57 56 61 70 70 69 71 73 71 75 66 53 43 38 43 41 49 53 56 56 55 49 42 48 48 49 51 52 47 51 45 45 47 50
53 51 47 48 52 55 58 58 63 65 66 65 63 63 58 58 56 60 58 53 47 36 44 45 38 49 59 62 62 53 49 47 50 42 43 66 56 53 54 47 49 49 50
37 40 43 44 51 56 53 56 58 57 56 52 51 52 52 55 54 52 55 55 49 50 44 45 48 59 60 62 57 52 49 49 44 36 56 67 61 58 54 51 51 51 50
30 32 35 39 41 43 45 47 52 54 57 60 62 61 52 51 47 44 42 36 42 49 47 45 56 55 52 54 52 53 52 50 44 41 61 63 62 58 56 50 52 52 49
26 28 32 35 35 35 34 31 30 32 36 37 38 38 40 41 43 42 41 42 43 42 42 44 55 49 51 51 52 51 49 48 49 45 55 63 64 65 55 49 53 53 50
27 28 30 31 30 29 26 26 29 31 34 35 36 34 36 37 37 36 39 41 41 40 41 45 48 49 53 55 58 53 47 50 53 55 50 63 60 65 62 53 51 54 52
21 23 24 24 24 25 26 26 27 31 33 33 32 31 27 28 31 37 37 37 40 39 45 45 49 49 53 55 57 57 51 54 60 57 62 64 63 59 53 50 47 48 42
Wind_Direction_850mb
201 207 212 215 221 227 230 228 235 235 254 329 343 329 312 310 313 305 319 305 286 147 207 330 351 13 37 44 43 44 48 51 53 54 55 53 53 46 45 45 33 34 23
216 223 233 235 239 245 247 247 248 252 251 289 285 296 294 300 308 315 320 306 304 289 314 325 333 347 21 51 47 56 56 52 54 56 59 57 49 44 44 34 27 28 22
225 226 231 237 242 249 252 256 255 254 269 271 267 283 284 291 297 297 315 305 303 302 314 322 324 329 360 61 62 59 55 54 56 57 64 53 49 46 38 34 29 29 21
231 234 238 244 246 253 261 262 257 251 256 274 279 286 286 287 288 287 307 298 298 304 311 321 324 321 331 21 68 59 49 43 52 59 67 64 53 39 37 35 26 24 19
236 241 246 248 251 255 261 268 257 248 249 271 267 283 281 278 272 280 293 293 294 296 302 313 311 305 310 296 307 36 5 42 59 61 61 59 56 46 36 26 24 21 18
242 246 248 248 250 256 259 263 258 245 247 253 277 283 278 273 266 269 283 286 287 293 295 304 300 297 300 294 274 286 317 355 37 62 69 58 45 35 26 24 19 17 13
241 245 250 251 252 256 263 263 261 248 244 252 267 279 277 274 273 274 274 276 276 283 289 293 293 291 291 286 279 274 275 299 357 68 76 57 47 37 25 18 14 11 10
245 248 251 254 256 258 257 252 254 252 241 249 256 268 258 266 274 273 276 277 274 276 279 283 286 284 282 277 271 263 267 274 273 216 81 46 28 18 16 12 9 6 5
246 247 252 254 254 254 254 254 253 250 244 246 257 245 248 249 268 269 277 274 274 273 273 274 276 275 273 271 264 262 264 263 259 266 265 322 10 8 6 7 4 2 360
248 249 249 251 251 252 253 252 249 247 245 246 254 251 249 259 266 276 277 277 274 274 274 269 267 267 266 265 260 253 249 251 252 256 267 299 328 344 354 358 358 357 356
251 251 252 253 252 251 254 253 250 246 248 251 255 260 257 260 267 269 273 274 270 274 270 268 265 262 261 259 255 251 250 253 258 263 269 294 315 334 336 343 350 353 352
255 255 254 254 255 255 256 257 255 252 252 255 257 257 261 264 270 272 272 274 277 276 271 264 262 260 258 256 251 247 247 252 259 263 276 290 305 324 330 335 339 344 347
261 261 260 259 259 259 259 259 257 256 255 255 257 257 260 264 268 272 272 270 268 272 270 261 260 256 255 253 250 248 249 252 259 268 278 289 305 318 323 330 334 337 339
268 270 271 267 267 266 266 264 262 260 258 258 257 258 262 262 259 265 268 263 266 269 265 256 264 255 253 251 247 246 246 249 258 266 277 290 301 308 316 323 328 332 334
270 273 274 274 272 271 270 269 268 267 265 262 261 260 262 264 264 264 268 262 264 261 263 263 261 264 256 249 244 241 241 248 258 268 275 285 293 300 310 317 324 326 329
274 275 277 278 278 277 275 271 270 268 267 270 266 264 266 270 271 270 267 261 257 263 263 275 272 264 258 247 241 242 242 247 256 263 272 281 286 293 306 313 318 321 325
272 273 274 275 276 275 274 273 269 272 273 273 271 277 277 285 278 273 273 258 261 266 260 262 263 268 256 248 241 241 241 243 254 264 267 275 282 290 299 307 312 316 320
271 272 274 275 277 277 278 279 274 275 271 271 275 278 283 285 282 289 286 269 261 258 262 256 266 256 264 249 240 237 240 244 258 264 266 274 280 286 295 303 307 312 316
267 270 271 272 273 274 276 275 278 280 273 276 279 283 283 290 280 284 275 270 265 264 249 250 253 278 256 244 242 240 240 246 258 266 266 272 280 283 289 297 302 309 312
260 263 266 266 267 268 270 274 277 271 279 283 283 278 283 284 280 277 273 269 262 252 237 245 260 258 260 252 245 242 242 250 264 265 269 275 275 280 285 293 299 304 306
257 259 259 258 260 267 268 272 270 282 282 283 283 284 286 287 290 288 279 270 259 246 243 251 248 258 263 255 246 244 240 255 264 268 286 278 275 278 280 289 293 297 300
266 264 265 262 267 269 268 264 268 271 274 280 285 289 293 292 297 289 281 270 260 243 227 237 249 251 261 254 253 244 244 259 254 269 303 279 272 275 275 284 288 291 297
260 264 269 272 274 275 277 273 269 266 270 274 278 278 282 283 278 283 275 264 242 240 254 247 245 251 256 258 255 243 249 259 254 281 289 274 270 270 272 275 280 286 294
268 274 276 277 276 276 278 280 283 286 286 288 285 281 281 278 276 272 267 260 259 259 239 245 255 260 254 247 243 240 256 261 258 277 276 270 274 276 275 272 277 282 291
272 278 282 285 292 290 293 291 288 289 288 282 280 277 274 277 279 272 262 259 259 249 248 261 261 256 254 251 243 237 255 261 269 274 286 278 276 276 275 272 272 280 286
288 291 295 295 284 286 290 288 286 283 287 278 270 280 285 283 275 266 261 261 251 258 271 270 267 265 259 253 247 244 248 257 268 275 295 276 275 270 272 273 268 274 278